Flag Weather past 2 weeks in Ganderkesee, Lower Saxony, Germany

Now
50 °F

Passing clouds.


Feels Like: 45 °F
Forecast: 40 / 48 °F
Wind: 15 mph from West

Location: Bremen Airport

Current Time: Nov 24, 2014 at 1:55:52 PM

Latest Report: Nov 24, 2014 at 1:20 PM


Visibility: N/A

Pressure: 30.21 "Hg

Humidity: 71%

Dew point: 41 °F

Location of GanderkeseeLocation

Historic Weather in Ganderkesee — Graph

°F

Ganderkesee temperature yesterday

Maximum temperature yesterday: 54 °F (at 2:20 PM)
Minimum temperature yesterday: 41 °F (at 12:20 AM)
Average temperature yesterday: 46 °F

Past Weeks' High & Low Weather Summary

 TemperatureHumidityPressure
High54 °F (Nov 9, 1:50 PM)100% (Nov 10, 12:20 AM)30.39 "Hg (Nov 10, 12:20 AM)
Low30 °F (Nov 21, 6:20 AM)67% (Nov 9, 1:50 PM)29.50 "Hg (Nov 16, 2:20 PM)
Average46 °F90%29.92 "Hg
* Reported Nov 9 12:20 PM — Nov 24 12:50 PM, Ganderkesee, Weather by CustomWeather, © 2014

Note: Actual official high and low records may vary slightly from our data, if they occured in-between our weather recording intervals... More about our weather records

Advertising

Ganderkesee weather history for previous 24 hours

 ConditionsComfort  
Time TempWeatherWind HumidityBarometerVisibility
12:50 PM
Nov 24
50 °FPassing clouds.14 mph71%30.21 "HgN/A
12:20 PM50 °FPassing clouds.14 mph71%30.21 "HgN/A
11:50 AM50 °FPassing clouds.13 mph76%30.18 "HgN/A
11:20 AM50 °FPassing clouds.13 mph76%30.18 "HgN/A
10:50 AM48 °FPassing clouds.13 mph82%30.18 "HgN/A
10:20 AM48 °FPassing clouds.12 mph87%30.18 "HgN/A
9:50 AM46 °FPassing clouds.12 mph87%30.15 "HgN/A
9:20 AM46 °FPassing clouds.10 mph87%30.15 "HgN/A
8:50 AM45 °FPassing clouds.10 mph93%30.12 "HgN/A
8:20 AM45 °FPassing clouds.10 mph93%30.12 "HgN/A
7:50 AM46 °FPassing clouds.12 mph93%30.09 "HgN/A
7:20 AM46 °FPassing clouds.10 mph87%30.09 "HgN/A
6:50 AM46 °FLight rain. Passing clouds.16 mph93%30.07 "HgN/A
6:20 AM48 °FLight rain. Passing clouds.16 mph94%30.07 "HgN/A
5:50 AM48 °FLight rain. Passing clouds.15 mph94%30.04 "HgN/A
5:20 AM48 °FLight rain. Passing clouds.16 mph100%30.01 "HgN/A
4:50 AM50 °FRain. Partly cloudy.10 mph94%30.01 "HgN/A
4:20 AM50 °FLight rain. Partly cloudy.12 mph94%29.98 "HgN/A
3:50 AM50 °FLight rain. Partly cloudy.13 mph94%29.98 "HgN/A
3:20 AM50 °FPartly cloudy.12 mph94%29.95 "HgN/A
2:50 AM52 °FPassing clouds.8 mph77%29.95 "HgN/A
2:20 AM52 °FPassing clouds.9 mph77%29.95 "HgN/A
1:50 AM52 °FPartly cloudy.8 mph77%29.92 "HgN/A
1:20 AM52 °FPassing clouds.8 mph77%29.92 "HgN/A
12:50 AM48 °FPassing clouds.3 mph82%29.95 "HgN/A
12:20 AM48 °FClear.6 mph82%29.95 "Hg10 mi
11:50 PM
Nov 23
50 °FClear.8 mph76%29.95 "Hg10 mi
11:20 PM50 °FClear.8 mph76%29.95 "Hg10 mi
10:20 PM48 °FClear.7 mph82%29.95 "Hg10 mi
9:20 PM48 °FClear.6 mph82%29.95 "Hg10 mi
8:50 PM48 °FClear.8 mph82%29.95 "Hg10 mi
8:20 PM48 °FClear.8 mph82%29.95 "Hg10 mi
7:50 PM48 °FClear.8 mph82%29.95 "Hg10 mi
7:20 PM50 °FClear.9 mph76%29.98 "Hg10 mi
6:50 PM50 °FClear.9 mph76%29.98 "Hg10 mi
6:20 PM50 °FClear.10 mph82%29.98 "Hg10 mi
5:50 PM48 °FClear.8 mph87%29.98 "Hg10 mi
5:20 PM52 °FClear.12 mph77%29.98 "Hg10 mi
4:50 PM52 °FClear.12 mph77%29.98 "Hg10 mi
4:20 PM54 °FClear.12 mph77%29.98 "Hg10 mi
3:50 PM54 °FSunny.10 mph77%30.01 "Hg10 mi
3:20 PM54 °FSunny.13 mph77%30.01 "Hg10 mi
2:50 PM54 °FSunny.12 mph77%30.01 "Hg10 mi
2:20 PM54 °FSunny.7 mph82%30.04 "Hg10 mi
1:50 PM52 °FSunny.9 mph82%30.07 "Hg10 mi
1:20 PM52 °FPassing clouds.8 mph88%30.07 "HgN/A
Weather by CustomWeather, © 2014

See weather overviewHow to use our weather pages